Overview Statistics Trail Chart Weather Telemetry Raw packets
 

This is the latest recevied weather packets stored in our database for station/object WD7OO. If no packets are shown the sender has not sent any weather packets the latest 10 day(s).

<< 95 96 97 98 99 100 101 >>
Time Temp. Humidity Pressure Rain* Wind** Luminosity Snow
1787919508 13.89° C 99% 1021.6 hPa 0 mm - 46 W/m² -
1787919204 13.33° C 99% 1021.6 hPa 0 mm - 44 W/m² -
1787918904 13.33° C 99% 1021.5 hPa 0 mm - 41 W/m² -
1787918599 13.33° C 99% 1021.4 hPa 0 mm - 38 W/m² -
1787918297 12.78° C 99% 1021.4 hPa 0 mm - 35 W/m² -
1787917991 12.78° C 99% 1021.6 hPa 0 mm - 32 W/m² -
1787917686 12.78° C 99% 1021.3 hPa 0 mm - 28 W/m² -
1787917383 12.78° C 99% 1021.4 hPa 0 mm - 24 W/m² -
1787917078 12.78° C 99% 1021.2 hPa 0 mm - 21 W/m² -
1787916772 12.78° C 99% 1021.2 hPa 0 mm - 18 W/m² -
1787916466 12.78° C 99% 1021.3 hPa 0 mm - 13 W/m² -
1787916162 12.78° C 99% 1021.4 hPa 0 mm - 10 W/m² -
1787915857 12.78° C 99% 1021.2 hPa 0 mm - 6 W/m² -
1787915553 12.22° C 99% 1021.3 hPa 0 mm - 4 W/m² -
1787915251 12.78° C 99% 1021.3 hPa 0 mm - 1 W/m² -
1787914947 12.78° C 99% 1021.2 hPa 0 mm - 1 W/m² -
1787914644 12.78° C 99% 1021.2 hPa 0 mm - 0 W/m² -
1787914340 12.78° C 99% 1021.1 hPa 0 mm - 0 W/m² -
1787914034 12.78° C 99% 1021 hPa 0 mm - 0 W/m² -
1787913733 12.78° C 99% 1021.1 hPa 0 mm - 0 W/m² -
1787913428 12.78° C 99% 1021 hPa 0 mm - 0 W/m² -
1787913122 13.33° C 99% 1020.8 hPa 0 mm - 0 W/m² -
1787912821 13.33° C 99% 1020.7 hPa 0 mm - 0 W/m² -
1787912516 13.33° C 99% 1020.8 hPa 0 mm - 0 W/m² -
1787912215 13.33° C 99% 1020.8 hPa 0 mm - 0 W/m² -

* Rain latest hour (hover to see other rain measurements)
** Current wind speed in m/s (hover to see current wind gust speed)